Location: Auckland
(36.8670°S, 174.7670°E)
Time: 00:10:33
(UTC+13:00)

IRAS Rocket - Pass Details

Date: 24 January 2019
Orbit: 848 x 877 km, 100.1° (Epoch: 19 February)

Event Time Altitude Azimuth Distance (km) Brightness Sun altitude
Rises 23:30:47 0° 169° (SSE) 3,485 8.0 -26.9°
Reaches altitude 10° 23:33:12 10° 171° (S) 2,537 7.3 -27.2°
Maximum altitude 23:38:47 68° 252° (WSW) 933 4.4 -27.8°
Enters shadow 23:39:49 56° 305° (NW) 1,026 4.5 -27.9°
